| time (UTC) | temp F | wind direction | speed MPH | gust MPH | rain 1hr in | rain 24hr in | rain mn in | humidity % | barometer mb |
| 20260508070943 | 94 | 39 | 0.0 | 7.0 | 0.00 | 0.00 | 0.00 | 100 | 1013.4 |
| 20260508070714 | 94 | 32 | 0.0 | 7.0 | 0.00 | 0.00 | 0.00 | 100 | 1013.3 |
| 20260508070214 | 94 | 336 | 1.0 | 3.0 | 0.00 | 0.00 | 0.00 | 100 | 1013.6 |
| 20260508065444 | 94 | 123 | 0.0 | 2.0 | 0.00 | 0.00 | 0.00 | 100 | 1014.1 |
| 20260508065145 | 94 | 123 | 0.0 | 5.0 | 0.00 | 0.00 | 0.00 | 100 | 1014.3 |
| 20260508064405 | 94 | 123 | 1.0 | 5.0 | 0.00 | 0.00 | 0.00 | 100 | 1014.0 |
| 20260508063904 | 94 | 11 | 0.0 | 2.0 | 0.00 | 0.00 | 0.00 | 100 | 1014.1 |
| 20260508063345 | 94 | 11 | 0.0 | 0.0 | 0.00 | 0.00 | 0.00 | 100 | 1014.2 |
| 20260508063112 | 94 | 11 | 0.0 | 0.0 | 0.00 | 0.00 | 0.00 | 100 | 1014.3 |
| 20260508062331 | 94 | 11 | 0.0 | 0.0 | 0.00 | 0.00 | 0.00 | 100 | 1014.7 |
| 20260508061822 | 94 | 11 | 0.0 | 0.0 | 0.00 | 0.00 | 0.00 | 100 | 1014.8 |
| 20260508061323 | 94 | 11 | 0.0 | 0.0 | 0.00 | 0.00 | 0.00 | 100 | 1014.6 |
| 20260508060800 | 94 | 11 | 0.0 | 0.0 | 0.00 | 0.00 | 0.00 | 100 | 1014.5 |
| 20260508060739 | 94 | 11 | 0.0 | 0.0 | 0.00 | 0.00 | 0.00 | 100 | 1014.5 |
| 20260508055714 | 94 | 11 | 0.0 | 0.0 | 0.00 | 0.00 | 0.00 | 100 | 1014.2 |
| 20260508055203 | 94 | 11 | 0.0 | 0.0 | 0.00 | 0.00 | 0.00 | 100 | 1014.1 |
| 20260508054659 | 94 | 11 | 0.0 | 0.0 | 0.00 | 0.00 | 0.00 | 100 | 1014.2 |
| 20260508054649 | 94 | 11 | 0.0 | 0.0 | 0.00 | 0.00 | 0.00 | 100 | 1014.4 |
| 20260508053645 | 94 | 11 | 0.0 | 0.0 | 0.00 | 0.00 | 0.00 | 100 | 1014.6 |
| 20260508053140 | 95 | 11 | 0.0 | 0.0 | 0.00 | 0.00 | 0.00 | 100 | 1014.8 |
| 20260508052632 | 95 | 11 | 0.0 | 0.0 | 0.00 | 0.00 | 0.00 | 100 | 1014.7 |
| 20260508052343 | 94 | 11 | 0.0 | 0.0 | 0.00 | 0.00 | 0.00 | 100 | 1014.6 |
| 20260508051607 | 94 | 11 | 0.0 | 0.0 | 0.00 | 0.00 | 0.00 | 100 | 1014.3 |
| 20260508051102 | 94 | 11 | 0.0 | 0.0 | 0.00 | 0.00 | 0.00 | 100 | 1014.3 |
| 20260508050546 | 94 | 11 | 0.0 | 0.0 | 0.00 | 0.00 | 0.00 | 100 | 1014.2 |
| 20260508050033 | 94 | 11 | 0.0 | 0.0 | 0.00 | 0.00 | 0.00 | 100 | 1014.0 |
| 20260508045531 | 94 | 11 | 0.0 | 2.0 | 0.00 | 0.00 | 0.00 | 100 | 1014.4 |
| 20260508045014 | 94 | 11 | 0.0 | 5.0 | 0.00 | 0.00 | 0.00 | 100 | 1014.8 |
| 20260508044506 | 94 | 11 | 0.0 | 5.0 | 0.00 | 0.00 | 0.00 | 100 | 1014.9 |
| 20260508044006 | 94 | 106 | 0.0 | 3.0 | 0.00 | 0.00 | 0.00 | 100 | 1015.3 |
| 20260508043459 | 94 | 106 | 0.0 | 0.0 | 0.00 | 0.00 | 0.00 | 100 | 1014.5 |
| 20260508043224 | 94 | 106 | 0.0 | 0.0 | 0.00 | 0.00 | 0.00 | 100 | 1014.1 |
| 20260508042430 | 94 | 106 | 0.0 | 0.0 | 0.00 | 0.00 | 0.00 | 100 | 1014.1 |
| 20260508041926 | 94 | 106 | 0.0 | 0.0 | 0.00 | 0.00 | 0.00 | 100 | 1013.9 |
| 20260508041412 | 94 | 106 | 0.0 | 0.0 | 0.00 | 0.00 | 0.00 | 100 | 1014.3 |
| 20260508040908 | 94 | 106 | 0.0 | 0.0 | 0.00 | 0.00 | 0.00 | 100 | 1015.0 |
| 20260508040403 | 94 | 106 | 0.0 | 0.0 | 0.00 | 0.00 | 0.00 | 100 | 1015.0 |
| 20260508035858 | 94 | 106 | 0.0 | 0.0 | 0.00 | 0.00 | 0.00 | 100 | 1014.9 |
| 20260508035351 | 94 | 106 | 0.0 | 0.0 | 0.00 | 0.00 | 0.00 | 100 | 1014.7 |
| 20260508035346 | 94 | 106 | 0.0 | 0.0 | 0.00 | 0.00 | 0.00 | 100 | 1014.8 |
| 20260508034333 | 94 | 106 | 0.0 | 0.0 | 0.00 | 0.00 | 0.00 | 100 | 1015.1 |
| 20260508033818 | 94 | 106 | 0.0 | 0.0 | 0.00 | 0.00 | 0.00 | 100 | 1015.3 |
| 20260508033309 | 94 | 106 | 0.0 | 0.0 | 0.00 | 0.00 | 0.00 | 100 | 1015.3 |
| 20260508032758 | 94 | 106 | 0.0 | 0.0 | 0.00 | 0.00 | 0.00 | 100 | 1015.4 |
| 20260508032259 | 95 | 106 | 0.0 | 0.0 | 0.00 | 0.00 | 0.00 | 100 | 1015.8 |
| 20260508031749 | 95 | 106 | 0.0 | 0.0 | 0.00 | 0.00 | 0.00 | 100 | 1015.8 |
| 20260508031520 | 95 | 106 | 0.0 | 0.0 | 0.00 | 0.00 | 0.00 | 100 | 1015.6 |
| 20260508030744 | 95 | 106 | 0.0 | 0.0 | 0.00 | 0.00 | 0.00 | 100 | 1015.4 |
| 20260508030244 | 95 | 106 | 0.0 | 0.0 | 0.00 | 0.00 | 0.00 | 100 | 1015.2 |
| 20260508025731 | 95 | 106 | 0.0 | 0.0 | 0.00 | 0.00 | 0.00 | 100 | 1014.9 |
| 20260508025230 | 95 | 106 | 0.0 | 0.0 | 0.00 | 0.00 | 0.00 | 100 | 1014.8 |
| 20260508024719 | 95 | 106 | 0.0 | 0.0 | 0.00 | 0.00 | 0.00 | 100 | 1014.5 |
| 20260508024218 | 95 | 106 | 0.0 | 4.0 | 0.00 | 0.00 | 0.00 | 100 | 1014.3 |
| 20260508023926 | 95 | 106 | 0.0 | 7.0 | 0.00 | 0.00 | 0.00 | 100 | 1014.3 |
| 20260508023150 | 95 | 106 | 4.0 | 7.0 | 0.00 | 0.00 | 0.00 | 100 | 1014.0 |
| 20260508022650 | 95 | 81 | 3.0 | 7.0 | 0.00 | 0.00 | 0.00 | 100 | 1013.8 |
| 20260508022151 | 95 | 137 | 0.0 | 7.0 | 0.00 | 0.00 | 0.00 | 100 | 1013.3 |
| 20260508021643 | 95 | 64 | 1.0 | 6.0 | 0.00 | 0.00 | 0.00 | 100 | 1013.0 |
| 20260508021140 | 95 | 113 | 1.0 | 6.0 | 0.00 | 0.00 | 0.00 | 100 | 1013.0 |
| 20260508020631 | 95 | 126 | 0.0 | 10.0 | 0.00 | 0.00 | 0.00 | 100 | 1013.1 |
| 20260508020118 | 95 | 77 | 2.0 | 10.0 | 0.00 | 0.00 | 0.00 | 100 | 1013.3 |
| 20260508015615 | 95 | 36 | 0.0 | 6.0 | 0.00 | 0.00 | 0.00 | 100 | 1013.4 |
| 20260508015112 | 95 | 108 | 0.0 | 7.0 | 0.00 | 0.00 | 0.00 | 100 | 1013.4 |
| 20260508014613 | 95 | 125 | 1.0 | 7.0 | 0.00 | 0.00 | 0.00 | 100 | 1013.4 |
| 20260508014113 | 95 | 50 | 1.0 | 6.0 | 0.00 | 0.00 | 0.00 | 100 | 1013.2 |
| 20260508013611 | 95 | 50 | 0.0 | 6.0 | 0.00 | 0.00 | 0.00 | 100 | 1013.1 |
| 20260508013113 | 95 | 59 | 1.0 | 5.0 | 0.00 | 0.00 | 0.00 | 100 | 1013.3 |
| 20260508013109 | 95 | 87 | 0.0 | 5.0 | 0.00 | 0.00 | 0.00 | 100 | 1013.1 |
| 20260508012059 | 95 | 115 | 3.0 | 5.0 | 0.00 | 0.00 | 0.00 | 100 | 1013.4 |
| 20260508011552 | 95 | 142 | 4.0 | 9.0 | 0.00 | 0.00 | 0.00 | 100 | 1013.2 |
| 20260508011050 | 95 | 326 | 5.0 | 9.0 | 0.00 | 0.00 | 0.00 | 100 | 1013.2 |
| 20260508010551 | 96 | 43 | 5.0 | 9.0 | 0.00 | 0.00 | 0.00 | 100 | 1013.9 |
| 20260508010323 | 95 | 91 | 2.0 | 7.0 | 0.00 | 0.00 | 0.00 | 100 | 1013.9 |
| 20260508005551 | 95 | 358 | 1.0 | 10.0 | 0.00 | 0.00 | 0.00 | 100 | 1013.3 |
| 20260508005050 | 96 | 22 | 3.0 | 10.0 | 0.00 | 0.00 | 0.00 | 100 | 1013.9 |
| 20260508004547 | 96 | 309 | 3.0 | 9.0 | 0.00 | 0.00 | 0.00 | 100 | 1013.8 |
| 20260508004047 | 96 | 129 | 4.0 | 7.0 | 0.00 | 0.00 | 0.00 | 100 | 1013.6 |
| 20260508003543 | 96 | 9 | 0.0 | 11.0 | 0.00 | 0.00 | 0.00 | 100 | 1013.9 |
| 20260508003045 | 96 | 23 | 1.0 | 11.0 | 0.00 | 0.00 | 0.00 | 100 | 1013.9 |
| 20260508002543 | 96 | 343 | 2.0 | 7.0 | 0.00 | 0.00 | 0.00 | 100 | 1013.8 |
| 20260508002043 | 96 | 322 | 1.0 | 7.0 | 0.00 | 0.00 | 0.00 | 100 | 1014.0 |
| 20260508001543 | 96 | 150 | 4.0 | 7.0 | 0.00 | 0.00 | 0.00 | 100 | 1014.1 |
| 20260508001043 | 97 | 343 | 2.0 | 6.0 | 0.00 | 0.00 | 0.00 | 100 | 1014.6 |
| 20260508000545 | 97 | 75 | 2.0 | 5.0 | 0.00 | 0.00 | 0.00 | 100 | 1014.5 |
| 20260508000042 | 97 | 33 | 0.0 | 1.0 | 0.00 | 0.00 | 0.00 | 100 | 1014.5 |
| 20260507235755 | 96 | 33 | 0.0 | 3.0 | 0.00 | 0.00 | 0.00 | 100 | 1014.5 |
| 20260507235026 | 97 | 33 | 0.0 | 4.0 | 0.00 | 0.00 | 0.00 | 100 | 1014.9 |
| 20260507234520 | 97 | 7 | 0.0 | 4.0 | 0.00 | 0.00 | 0.00 | 100 | 1015.1 |
| 20260507234005 | 96 | 73 | 0.0 | 5.0 | 0.00 | 0.00 | 0.00 | 100 | 1014.8 |
| 20260507233506 | 97 | 59 | 0.0 | 5.0 | 0.00 | 0.00 | 0.00 | 100 | 1014.8 |
| 20260507232958 | 97 | 35 | 0.0 | 4.0 | 0.00 | 0.00 | 0.00 | 100 | 1014.8 |
| 20260507232445 | 97 | 320 | 0.0 | 4.0 | 0.00 | 0.00 | 0.00 | 100 | 1015.0 |
| 20260507231944 | 97 | 320 | 0.0 | 5.0 | 0.00 | 0.00 | 0.00 | 100 | 1015.1 |
| 20260507231436 | 97 | 33 | 0.0 | 6.0 | 0.00 | 0.00 | 0.00 | 100 | 1014.8 |
| 20260507230925 | 97 | 82 | 4.0 | 6.0 | 0.00 | 0.00 | 0.00 | 100 | 1014.7 |
| 20260507230413 | 97 | 334 | 2.0 | 6.0 | 0.00 | 0.00 | 0.00 | 100 | 1014.7 |
| 20260507225912 | 97 | 28 | 0.0 | 6.0 | 0.00 | 0.00 | 0.00 | 100 | 1015.0 |
| 20260507225408 | 97 | 46 | 3.0 | 9.0 | 0.00 | 0.00 | 0.00 | 100 | 1014.9 |
| 20260507224906 | 97 | 68 | 6.0 | 9.0 | 0.00 | 0.00 | 0.00 | 100 | 1014.9 |
| 20260507224406 | 97 | 18 | 0.0 | 10.0 | 0.00 | 0.00 | 0.00 | 100 | 1014.8 |
| 20260507223853 | 97 | 19 | 3.0 | 10.0 | 0.00 | 0.00 | 0.00 | 100 | 1014.8 |
| 20260507223347 | 97 | 59 | 0.0 | 6.0 | 0.00 | 0.00 | 0.00 | 100 | 1015.1 |
| 20260507222845 | 97 | 292 | 0.0 | 6.0 | 0.00 | 0.00 | 0.00 | 100 | 1015.2 |
| 20260507222345 | 97 | 303 | 3.0 | 11.0 | 0.00 | 0.00 | 0.00 | 100 | 1015.3 |
| 20260507221843 | 97 | 29 | 0.0 | 11.0 | 0.00 | 0.00 | 0.00 | 100 | 1015.3 |
| 20260507221343 | 97 | 357 | 2.0 | 10.0 | 0.00 | 0.00 | 0.00 | 100 | 1015.2 |
| 20260507220843 | 97 | 1 | 5.0 | 11.0 | 0.00 | 0.00 | 0.00 | 100 | 1015.3 |
| 20260507220347 | 97 | 333 | 7.0 | 11.0 | 0.00 | 0.00 | 0.00 | 100 | 1015.2 |
| 20260507220343 | 97 | 358 | 6.0 | 11.0 | 0.00 | 0.00 | 0.00 | 100 | 1015.3 |
| 20260507215347 | 97 | 5 | 4.0 | 13.0 | 0.00 | 0.00 | 0.00 | 100 | 1015.3 |
| 20260507215343 | 97 | 15 | 2.0 | 8.0 | 0.00 | 0.00 | 0.00 | 100 | 1015.3 |
| 20260507214328 | 97 | 1 | 6.0 | 13.0 | 0.00 | 0.00 | 0.00 | 100 | 1015.7 |
| 20260507213826 | 97 | 338 | 3.0 | 9.0 | 0.00 | 0.00 | 0.00 | 100 | 1015.8 |
| 20260507213327 | 98 | 8 | 0.0 | 13.0 | 0.00 | 0.00 | 0.00 | 100 | 1015.8 |
| 20260507212827 | 98 | 310 | 2.0 | 13.0 | 0.00 | 0.00 | 0.00 | 100 | 1015.9 |
| 20260507212327 | 98 | 49 | 2.0 | 8.0 | 0.00 | 0.00 | 0.00 | 100 | 1015.7 |
| 20260507211826 | 97 | 309 | 4.0 | 8.0 | 0.00 | 0.00 | 0.00 | 100 | 1015.6 |
| 20260507211326 | 97 | 56 | 5.0 | 8.0 | 0.00 | 0.00 | 0.00 | 100 | 1015.3 |
| 20260507211057 | 97 | 334 | 2.0 | 9.0 | 0.00 | 0.00 | 0.00 | 100 | 1015.3 |
| 20260507210324 | 97 | 123 | 4.0 | 9.0 | 0.00 | 0.00 | 0.00 | 100 | 1015.2 |
| 20260507205821 | 97 | 7 | 5.0 | 8.0 | 0.00 | 0.00 | 0.00 | 100 | 1015.6 |
| 20260507205321 | 96 | 18 | 4.0 | 7.0 | 0.00 | 0.00 | 0.00 | 100 | 1015.6 |
| 20260507204821 | 96 | 11 | 4.0 | 7.0 | 0.00 | 0.00 | 0.00 | 100 | 1015.7 |
| 20260507204312 | 96 | 358 | 1.0 | 7.0 | 0.00 | 0.00 | 0.00 | 100 | 1015.9 |
| 20260507204033 | 97 | 64 | 0.0 | 8.0 | 0.00 | 0.00 | 0.00 | 100 | 1016.1 |
| 20260507203302 | 97 | 270 | 3.0 | 8.0 | 0.00 | 0.00 | 0.00 | 100 | 1016.1 |
| 20260507202803 | 96 | 317 | 1.0 | 7.0 | 0.00 | 0.00 | 0.00 | 100 | 1016.2 |
| 20260507202532 | 96 | 358 | 1.0 | 10.0 | 0.00 | 0.00 | 0.00 | 100 | 1016.4 |
| 20260507201759 | 96 | 347 | 2.0 | 10.0 | 0.00 | 0.00 | 0.00 | 100 | 1016.3 |
| 20260507201530 | 96 | 43 | 0.0 | 7.0 | 0.00 | 0.00 | 0.00 | 100 | 1016.5 |
| 20260507200759 | 97 | 333 | 0.0 | 7.0 | 0.00 | 0.00 | 0.00 | 100 | 1016.5 |
| 20260507200259 | 97 | 26 | 1.0 | 7.0 | 0.00 | 0.00 | 0.00 | 100 | 1016.4 |
| 20260507195750 | 97 | 90 | 3.0 | 9.0 | 0.00 | 0.00 | 0.00 | 100 | 1016.5 |
| 20260507195251 | 96 | 74 | 4.0 | 9.0 | 0.00 | 0.00 | 0.00 | 100 | 1016.3 |
| 20260507194750 | 96 | 334 | 5.0 | 9.0 | 0.00 | 0.00 | 0.00 | 100 | 1016.3 |
| 20260507194250 | 96 | 78 | 2.0 | 11.0 | 0.00 | 0.00 | 0.00 | 100 | 1016.4 |
| 20260507193749 | 96 | 344 | 4.0 | 11.0 | 0.00 | 0.00 | 0.00 | 100 | 1016.6 |
| 20260507193521 | 96 | 70 | 6.0 | 10.0 | 0.00 | 0.00 | 0.00 | 100 | 1016.8 |
| 20260507192752 | 96 | 60 | 5.0 | 10.0 | 0.00 | 0.00 | 0.00 | 100 | 1017.1 |
| 20260507192251 | 96 | 327 | 4.0 | 11.0 | 0.00 | 0.00 | 0.00 | 100 | 1017.0 |
| 20260507192247 | 96 | 21 | 3.0 | 11.0 | 0.00 | 0.00 | 0.00 | 100 | 1017.0 |
| 20260507191514 | 96 | 50 | 4.0 | 14.0 | 0.00 | 0.00 | 0.00 | 100 | 1016.9 |
| 20260507190743 | 96 | 116 | 3.0 | 14.0 | 0.00 | 0.00 | 0.00 | 100 | 1017.1 |
| 20260507190504 | 95 | 36 | 6.0 | 9.0 | 0.00 | 0.00 | 0.00 | 100 | 1017.0 |
| 20260507185734 | 95 | 91 | 4.0 | 10.0 | 0.00 | 0.00 | 0.00 | 100 | 1017.0 |
| 20260507185230 | 95 | 133 | 4.0 | 10.0 | 0.00 | 0.00 | 0.00 | 100 | 1017.0 |
| 20260507184729 | 95 | 185 | 4.0 | 12.0 | 0.00 | 0.00 | 0.00 | 100 | 1016.9 |
| 20260507184222 | 95 | 112 | 7.0 | 12.0 | 0.00 | 0.00 | 0.00 | 100 | 1016.7 |
| 20260507183716 | 96 | 78 | 4.0 | 11.0 | 0.00 | 0.00 | 0.00 | 100 | 1016.9 |
| 20260507183215 | 96 | 98 | 6.0 | 11.0 | 0.00 | 0.00 | 0.00 | 100 | 1016.8 |
| 20260507182947 | 96 | 309 | 3.0 | 9.0 | 0.00 | 0.00 | 0.00 | 100 | 1017.5 |
| 20260507182441 | 95 | 28 | 4.0 | 11.0 | 0.00 | 0.00 | 0.00 | 100 | 1017.0 |
| 20260507181710 | 95 | 330 | 4.0 | 13.0 | 0.00 | 0.00 | 0.00 | 100 | 1017.1 |
| 20260507181442 | 95 | 351 | 4.0 | 13.0 | 0.00 | 0.00 | 0.00 | 100 | 1016.9 |
| 20260507180704 | 95 | 14 | 5.0 | 11.0 | 0.00 | 0.00 | 0.00 | 100 | 1017.5 |
| 20260507180203 | 95 | 70 | 4.0 | 10.0 | 0.00 | 0.00 | 0.00 | 100 | 1017.1 |
| 20260507175935 | 95 | 358 | 6.0 | 10.0 | 0.00 | 0.00 | 0.00 | 100 | 1017.0 |
| 20260507175202 | 95 | 4 | 5.0 | 13.0 | 0.00 | 0.00 | 0.00 | 100 | 1017.1 |
| 20260507174702 | 95 | 81 | 5.0 | 13.0 | 0.00 | 0.00 | 0.00 | 100 | 1017.1 |
| 20260507174202 | 95 | 21 | 7.0 | 12.0 | 0.00 | 0.00 | 0.00 | 100 | 1017.1 |
| 20260507173702 | 95 | 25 | 2.0 | 13.0 | 0.00 | 0.00 | 0.00 | 100 | 1017.1 |
| 20260507173202 | 95 | 87 | 5.0 | 13.0 | 0.00 | 0.00 | 0.00 | 100 | 1017.6 |
| 20260507172659 | 94 | 28 | 2.0 | 11.0 | 0.00 | 0.00 | 0.00 | 100 | 1017.6 |
| 20260507172158 | 94 | 80 | 6.0 | 11.0 | 0.00 | 0.00 | 0.00 | 100 | 1017.7 |
| 20260507171658 | 94 | 33 | 4.0 | 11.0 | 0.00 | 0.00 | 0.00 | 100 | 1017.3 |
| 20260507171158 | 94 | 139 | 4.0 | 10.0 | 0.00 | 0.00 | 0.00 | 100 | 1016.9 |
| 20260507170658 | 93 | 9 | 6.0 | 10.0 | 0.00 | 0.00 | 0.00 | 100 | 1016.9 |
| 20260507170157 | 93 | 84 | 2.0 | 11.0 | 0.00 | 0.00 | 0.00 | 100 | 1016.8 |
| 20260507165648 | 93 | 358 | 0.0 | 11.0 | 0.00 | 0.00 | 0.00 | 100 | 1016.8 |
| 20260507165414 | 93 | 26 | 4.0 | 13.0 | 0.00 | 0.00 | 0.00 | 100 | 1017.5 |
| 20260507164643 | 93 | 323 | 7.0 | 13.0 | 0.00 | 0.00 | 0.00 | 100 | 1017.7 |
| 20260507164143 | 92 | 22 | 4.0 | 11.0 | 0.00 | 0.00 | 0.00 | 100 | 1017.1 |
| 20260507163643 | 93 | 74 | 2.0 | 13.0 | 0.00 | 0.00 | 0.00 | 100 | 1017.7 |
| 20260507163133 | 92 | 317 | 5.0 | 13.0 | 0.00 | 0.00 | 0.00 | 100 | 1017.2 |
| 20260507162632 | 92 | 43 | 5.0 | 11.0 | 0.00 | 0.00 | 0.00 | 100 | 1018.1 |
| 20260507162130 | 93 | 56 | 2.0 | 9.0 | 0.00 | 0.00 | 0.00 | 100 | 1018.0 |
| 20260507161629 | 93 | 45 | 1.0 | 9.0 | 0.00 | 0.00 | 0.00 | 100 | 1018.3 |
| 20260507161129 | 93 | 334 | 5.0 | 9.0 | 0.00 | 0.00 | 0.00 | 100 | 1019.0 |
| 20260507160629 | 93 | 310 | 0.0 | 10.0 | 0.00 | 0.00 | 0.00 | 100 | 1019.0 |
| 20260507160113 | 93 | 5 | 4.0 | 11.0 | 0.00 | 0.00 | 0.00 | 100 | 1018.9 |
| 20260507155614 | 92 | 74 | 2.0 | 11.0 | 0.00 | 0.00 | 0.00 | 100 | 1018.8 |
| 20260507155342 | 92 | 42 | 0.0 | 11.0 | 0.00 | 0.00 | 0.00 | 100 | 1018.2 |
| 20260507154842 | 92 | 94 | 4.0 | 9.0 | 0.00 | 0.00 | 0.00 | 100 | 1018.0 |
| 20260507154111 | 93 | 99 | 3.0 | 12.0 | 0.00 | 0.00 | 0.00 | 100 | 1018.2 |
| 20260507153612 | 93 | 120 | 6.0 | 12.0 | 0.00 | 0.00 | 0.00 | 100 | 1018.2 |
| 20260507153112 | 93 | 357 | 6.0 | 11.0 | 0.00 | 0.00 | 0.00 | 100 | 1018.6 |
| 20260507152612 | 93 | 358 | 4.0 | 10.0 | 0.00 | 0.00 | 0.00 | 100 | 1018.3 |
| 20260507152110 | 93 | 57 | 3.0 | 10.0 | 0.00 | 0.00 | 0.00 | 100 | 1018.0 |
| 20260507151610 | 93 | 4 | 6.0 | 10.0 | 0.00 | 0.00 | 0.00 | 100 | 1018.0 |
| 20260507151110 | 93 | 347 | 6.0 | 11.0 | 0.00 | 0.00 | 0.00 | 100 | 1018.2 |
| 20260507150609 | 92 | 333 | 7.0 | 11.0 | 0.00 | 0.00 | 0.00 | 100 | 1018.3 |
| 20260507150108 | 92 | 358 | 2.0 | 10.0 | 0.00 | 0.00 | 0.00 | 100 | 1018.3 |
| 20260507145608 | 93 | 310 | 4.0 | 9.0 | 0.00 | 0.00 | 0.00 | 100 | 1018.3 |
| 20260507145108 | 92 | 14 | 3.0 | 10.0 | 0.00 | 0.00 | 0.00 | 100 | 1018.6 |
| 20260507144609 | 93 | 305 | 1.0 | 10.0 | 0.00 | 0.00 | 0.00 | 100 | 1018.6 |
| 20260507144108 | 92 | 330 | 1.0 | 8.0 | 0.00 | 0.00 | 0.00 | 100 | 1018.6 |
| 20260507143103 | 93 | 5 | 4.0 | 10.0 | 0.00 | 0.00 | 0.00 | 100 | 1018.3 |
| 20260507142603 | 93 | 307 | 4.0 | 14.0 | 0.00 | 0.00 | 0.00 | 100 | 1018.0 |
| 20260507142103 | 93 | 333 | 3.0 | 14.0 | 0.00 | 0.00 | 0.00 | 100 | 1017.7 |
| 20260507141543 | 93 | 306 | 4.0 | 11.0 | 0.00 | 0.00 | 0.00 | 100 | 1017.8 |
| 20260507141315 | 93 | 8 | 0.0 | 10.0 | 0.00 | 0.00 | 0.00 | 100 | 1018.0 |
| 20260507140543 | 93 | 56 | 3.0 | 11.0 | 0.00 | 0.00 | 0.00 | 100 | 1018.0 |
| 20260507140043 | 93 | 358 | 8.0 | 14.0 | 0.00 | 0.00 | 0.00 | 100 | 1018.0 |
| 20260507135814 | 93 | 108 | 2.0 | 14.0 | 0.00 | 0.00 | 0.00 | 100 | 1017.8 |
| 20260507135025 | 93 | 354 | 2.0 | 11.0 | 0.00 | 0.00 | 0.00 | 100 | 1017.6 |
| 20260507134523 | 93 | 358 | 6.0 | 11.0 | 0.00 | 0.00 | 0.00 | 100 | 1017.6 |
| 20260507134013 | 93 | 333 | 4.0 | 13.0 | 0.00 | 0.00 | 0.00 | 100 | 1017.2 |
| 20260507133505 | 92 | 358 | 6.0 | 13.0 | 0.00 | 0.00 | 0.00 | 100 | 1017.2 |
| 20260507133002 | 93 | 319 | 4.0 | 12.0 | 0.00 | 0.00 | 0.00 | 100 | 1017.1 |
| 20260507132500 | 93 | 57 | 5.0 | 15.0 | 0.00 | 0.00 | 0.00 | 100 | 1017.2 |
| 20260507131948 | 93 | 7 | 6.0 | 13.0 | 0.00 | 0.00 | 0.00 | 100 | 1017.2 |
| 20260507131944 | 93 | 12 | 8.0 | 15.0 | 0.00 | 0.00 | 0.00 | 100 | 1017.2 |
| 20260507130944 | 92 | 327 | 7.0 | 11.0 | 0.00 | 0.00 | 0.00 | 100 | 1017.1 |
| 20260507130444 | 92 | 35 | 4.0 | 11.0 | 0.00 | 0.00 | 0.00 | 100 | 1017.1 |
| 20260507125943 | 92 | 307 | 6.0 | 11.0 | 0.00 | 0.00 | 0.00 | 100 | 1017.2 |
| 20260507125444 | 92 | 26 | 2.0 | 11.0 | 0.00 | 0.00 | 0.00 | 100 | 1017.3 |
| 20260507124938 | 91 | 4 | 4.0 | 12.0 | 0.00 | 0.00 | 0.00 | 100 | 1017.3 |
| 20260507124438 | 91 | 37 | 2.0 | 12.0 | 0.00 | 0.00 | 0.00 | 100 | 1017.1 |
| 20260507124209 | 91 | 5 | 5.0 | 11.0 | 0.00 | 0.00 | 0.00 | 100 | 1017.1 |
| 20260507123438 | 91 | 21 | 4.0 | 11.0 | 0.00 | 0.00 | 0.00 | 100 | 1017.2 |
| 20260507122938 | 92 | 358 | 5.0 | 13.0 | 0.00 | 0.00 | 0.00 | 100 | 1017.1 |
| 20260507122435 | 92 | 12 | 3.0 | 13.0 | 0.00 | 0.00 | 0.00 | 100 | 1017.3 |
| 20260507121935 | 92 | 0 | 4.0 | 12.0 | 0.00 | 0.00 | 0.00 | 100 | 1017.2 |
| 20260507121435 | 92 | 37 | 7.0 | 13.0 | 0.00 | 0.00 | 0.00 | 100 | 1017.0 |
| 20260507121204 | 92 | 326 | 4.0 | 13.0 | 0.00 | 0.00 | 0.00 | 100 | 1016.7 |
| 20260507120434 | 92 | 358 | 4.0 | 10.0 | 0.00 | 0.00 | 0.00 | 100 | 1016.7 |
| 20260507115934 | 92 | 37 | 0.0 | 11.0 | 0.00 | 0.00 | 0.00 | 100 | 1016.5 |
| 20260507115433 | 92 | 28 | 5.0 | 14.0 | 0.00 | 0.00 | 0.00 | 100 | 1016.5 |
| 20260507114931 | 92 | 30 | 3.0 | 14.0 | 0.00 | 0.00 | 0.00 | 100 | 1016.5 |
| 20260507114423 | 92 | 343 | 6.0 | 13.0 | 0.00 | 0.00 | 0.00 | 100 | 1016.4 |
| 20260507113923 | 92 | 330 | 7.0 | 14.0 | 0.00 | 0.00 | 0.00 | 100 | 1016.2 |
| 20260507113422 | 92 | 73 | 2.0 | 14.0 | 0.00 | 0.00 | 0.00 | 100 | 1016.4 |
| 20260507112923 | 92 | 327 | 6.0 | 12.0 | 0.00 | 0.00 | 0.00 | 100 | 1016.1 |
| 20260507112655 | 92 | 358 | 4.0 | 11.0 | 0.00 | 0.00 | 0.00 | 100 | 1016.0 |
| 20260507111921 | 92 | 358 | 4.0 | 11.0 | 0.00 | 0.00 | 0.00 | 100 | 1016.0 |
| 20260507111421 | 93 | 340 | 4.0 | 11.0 | 0.00 | 0.00 | 0.00 | 100 | 1016.0 |
| 20260507110922 | 93 | 358 | 5.0 | 13.0 | 0.00 | 0.00 | 0.00 | 100 | 1016.1 |
| 20260507110418 | 93 | 324 | 6.0 | 13.0 | 0.00 | 0.00 | 0.00 | 100 | 1016.2 |
| 20260507105918 | 93 | 358 | 3.0 | 12.0 | 0.00 | 0.00 | 0.00 | 100 | 1016.1 |
| 20260507105417 | 93 | 90 | 8.0 | 12.0 | 0.00 | 0.00 | 0.00 | 100 | 1016.3 |
| 20260507105143 | 93 | 15 | 5.0 | 11.0 | 0.00 | 0.00 | 0.00 | 100 | 1016.3 |
| 20260507104412 | 93 | 1 | 3.0 | 11.0 | 0.00 | 0.00 | 0.00 | 100 | 1016.3 |
| 20260507103913 | 93 | 358 | 2.0 | 12.0 | 0.00 | 0.00 | 0.00 | 100 | 1016.3 |
| 20260507103641 | 93 | 333 | 6.0 | 12.0 | 0.00 | 0.00 | 0.00 | 100 | 1016.1 |
| 20260507102911 | 93 | 26 | 3.0 | 11.0 | 0.00 | 0.00 | 0.00 | 100 | 1015.9 |
| 20260507102411 | 93 | 92 | 4.0 | 18.0 | 0.00 | 0.00 | 0.00 | 100 | 1015.6 |
| 20260507101903 | 93 | 32 | 5.0 | 18.0 | 0.00 | 0.00 | 0.00 | 100 | 1015.6 |
| 20260507101635 | 93 | 8 | 3.0 | 12.0 | 0.00 | 0.00 | 0.00 | 100 | 1015.9 |
| 20260507100903 | 93 | 358 | 7.0 | 11.0 | 0.00 | 0.00 | 0.00 | 100 | 1015.4 |
| 20260507100359 | 93 | 329 | 4.0 | 10.0 | 0.00 | 0.00 | 0.00 | 100 | 1015.7 |
| 20260507100130 | 93 | 344 | 5.0 | 10.0 | 0.00 | 0.00 | 0.00 | 100 | 1015.6 |
| 20260507095358 | 93 | 303 | 4.0 | 7.0 | 0.00 | 0.00 | 0.00 | 100 | 1015.3 |
| 20260507094903 | 93 | 336 | 2.0 | 10.0 | 0.00 | 0.00 | 0.00 | 100 | 1015.8 |
| 20260507094859 | 93 | 29 | 3.0 | 8.0 | 0.00 | 0.00 | 0.00 | 100 | 1015.6 |
| 20260507093859 | 93 | 355 | 3.0 | 10.0 | 0.00 | 0.00 | 0.00 | 100 | 1015.8 |
| 20260507093346 | 93 | 73 | 1.0 | 9.0 | 0.00 | 0.00 | 0.00 | 100 | 1015.7 |
| 20260507092844 | 93 | 36 | 4.0 | 7.0 | 0.00 | 0.00 | 0.00 | 100 | 1015.7 |
| 20260507092345 | 93 | 19 | 1.0 | 7.0 | 0.00 | 0.00 | 0.00 | 100 | 1015.6 |
| 20260507091842 | 93 | 2 | 0.0 | 5.0 | 0.00 | 0.00 | 0.00 | 100 | 1015.6 |
| 20260507091327 | 93 | 16 | 1.0 | 8.0 | 0.00 | 0.00 | 0.00 | 100 | 1015.7 |
| 20260507090822 | 93 | 29 | 1.0 | 10.0 | 0.00 | 0.00 | 0.00 | 100 | 1015.7 |
| 20260507090314 | 93 | 5 | 5.0 | 10.0 | 0.00 | 0.00 | 0.00 | 100 | 1015.3 |
| 20260507085814 | 93 | 4 | 1.0 | 6.0 | 0.00 | 0.00 | 0.00 | 100 | 1015.1 |
| 20260507085312 | 94 | 331 | 0.0 | 10.0 | 0.00 | 0.00 | 0.00 | 100 | 1015.1 |
| 20260507084812 | 93 | 316 | 6.0 | 10.0 | 0.00 | 0.00 | 0.00 | 100 | 1014.9 |
| 20260507084303 | 94 | 1 | 2.0 | 10.0 | 0.00 | 0.00 | 0.00 | 100 | 1014.8 |
| 20260507083804 | 94 | 303 | 4.0 | 8.0 | 0.00 | 0.00 | 0.00 | 100 | 1014.8 |
| 20260507083300 | 94 | 337 | 4.0 | 7.0 | 0.00 | 0.00 | 0.00 | 100 | 1015.0 |
| 20260507082801 | 94 | 7 | 0.0 | 10.0 | 0.00 | 0.00 | 0.00 | 100 | 1014.9 |
| 20260507082256 | 94 | 358 | 2.0 | 10.0 | 0.00 | 0.00 | 0.00 | 100 | 1014.7 |
| 20260507081749 | 94 | 327 | 4.0 | 8.0 | 0.00 | 0.00 | 0.00 | 100 | 1014.9 |
| 20260507081519 | 94 | 88 | 3.0 | 7.0 | 0.00 | 0.00 | 0.00 | 100 | 1014.6 |
| 20260507080748 | 94 | 23 | 4.0 | 7.0 | 0.00 | 0.00 | 0.00 | 100 | 1014.8 |
| 20260507080518 | 94 | 45 | 0.0 | 5.0 | 0.00 | 0.00 | 0.00 | 100 | 1014.6 |
| 20260507075744 | 94 | 350 | 0.0 | 9.0 | 0.00 | 0.00 | 0.00 | 100 | 1014.8 |
| 20260507075504 | 94 | 326 | 1.0 | 9.0 | 0.00 | 0.00 | 0.00 | 100 | 1014.3 |
| 20260507074733 | 94 | 147 | 1.0 | 10.0 | 0.00 | 0.00 | 0.00 | 100 | 1014.3 |
| 20260507074233 | 94 | 358 | 0.0 | 11.0 | 0.00 | 0.00 | 0.00 | 100 | 1014.3 |
| 20260507073731 | 94 | 358 | 2.0 | 11.0 | 0.00 | 0.00 | 0.00 | 100 | 1014.6 |
| 20260507073231 | 94 | 71 | 2.0 | 9.0 | 0.00 | 0.00 | 0.00 | 100 | 1014.7 |
| 20260507073006 | 94 | 63 | 3.0 | 9.0 | 0.00 | 0.00 | 0.00 | 100 | 1014.5 |
| 20260507072503 | 95 | 54 | 2.0 | 9.0 | 0.00 | 0.00 | 0.00 | 100 | 1014.6 |
| 20260507071728 | 95 | 40 | 0.0 | 9.0 | 0.00 | 0.00 | 0.00 | 100 | 1014.2 |